TimeCDT,TemperatureF,Dew PointF,Humidity,Sea Level PressureIn,VisibilityMPH,Wind Direction,Wind SpeedMPH,Gust SpeedMPH,PrecipitationIn,Events,Conditions,WindDirDegrees,DateUTC
12:53 AM,66.0,55.9,70,30.08,10.0,SE,5.8,-,N/A,,Clear,140,2012-10-04 05:53:00
1:53 AM,60.1,55.9,86,30.09,10.0,ESE,3.5,-,N/A,,Clear,120,2012-10-04 06:53:00
2:53 AM,59.0,55.9,90,30.09,10.0,SE,3.5,-,N/A,,Clear,130,2012-10-04 07:53:00
3:53 AM,63.0,55.0,75,30.09,10.0,SE,5.8,-,N/A,,Clear,140,2012-10-04 08:53:00
4:53 AM,63.0,55.0,75,30.10,10.0,SSE,4.6,-,N/A,,Clear,150,2012-10-04 09:53:00
5:53 AM,64.0,55.9,75,30.13,10.0,South,5.8,-,N/A,,Clear,180,2012-10-04 10:53:00
6:53 AM,63.0,57.0,81,30.14,10.0,South,3.5,-,N/A,,Clear,180,2012-10-04 11:53:00
7:53 AM,64.0,59.0,84,30.15,10.0,South,4.6,-,N/A,,Clear,180,2012-10-04 12:53:00
8:53 AM,68.0,61.0,78,30.17,10.0,South,3.5,-,N/A,,Clear,190,2012-10-04 13:53:00
9:53 AM,73.0,61.0,66,30.19,10.0,SSW,5.8,-,N/A,,Clear,200,2012-10-04 14:53:00
10:53 AM,77.0,59.0,54,30.19,10.0,South,8.1,-,N/A,,Clear,180,2012-10-04 15:53:00
11:53 AM,81.0,57.0,44,30.19,10.0,SSE,8.1,-,N/A,,Clear,160,2012-10-04 16:53:00
12:53 PM,82.0,53.1,37,30.18,10.0,ESE,6.9,-,N/A,,Clear,120,2012-10-04 17:53:00
1:53 PM,84.0,51.1,32,30.14,10.0,South,9.2,-,N/A,,Clear,170,2012-10-04 18:53:00
2:53 PM,84.0,50.0,31,30.12,10.0,SSE,6.9,18.4,N/A,,Clear,160,2012-10-04 19:53:00
3:53 PM,84.9,54.0,34,30.10,10.0,SSE,8.1,-,N/A,,Clear,150,2012-10-04 20:53:00
5:53 PM,82.0,57.0,42,30.08,10.0,SSE,6.9,17.3,N/A,,Clear,160,2012-10-04 22:53:00
6:53 PM,78.1,57.9,50,30.10,10.0,South,5.8,-,N/A,,Clear,170,2012-10-04 23:53:00
7:53 PM,73.0,60.1,64,30.11,10.0,SSE,5.8,-,N/A,,Clear,150,2012-10-05 00:53:00
8:53 PM,73.0,59.0,61,30.12,10.0,SE,3.5,-,N/A,,Clear,130,2012-10-05 01:53:00
9:53 PM,71.1,60.1,68,30.13,10.0,SE,4.6,-,N/A,,Clear,140,2012-10-05 02:53:00
10:53 PM,70.0,61.0,73,30.13,10.0,ESE,4.6,-,N/A,,Clear,110,2012-10-05 03:53:00
11:53 PM,68.0,61.0,78,30.12,10.0,ESE,4.6,-,N/A,,Clear,110,2012-10-05 04:53:00